Reflectivity
-20 -20 -20 -20 -20 -20 -20 -20 13 7 -20 5 -14 -11 -20 -20 -20 -20 -20 -20 -20 -20
-20 -20 -20 -20 -20 -20 -20 -3 8 -0 -15 4 -20 -19 -20 -20 -20 -20 -20 -20 -20 -20
-20 -20 -20 -20 -20 -3 5 10 15 1 5 -18 5 -20 -20 -20 -20 -20 -20 -20 -20 -20
-20 -20 -20 -20 -20 -16 14 -14 2 0 -17 -20 -20 -20 -20 -20 -20 -20 -20 -20 -20 -20
-20 -20 -20 -20 -20 18 -18 -20 -8 -16 8 -20 -20 -20 -20 -20 -20 -20 -20 -20 -20 -20
-20 -20 -17 -13 13 -20 8 7 -12 10 -19 -20 -20 -20 -20 -20 -20 -20 -20 -20 -20 -20
-5 -16 -7 2 -18 -10 -17 -20 11 -19 -2 -1 -20 -20 -20 -20 -20 -20 -20 -20 -20 -20
10 11 -1 10 6 -19 -1 16 -15 9 -11 -20 -20 -20 -20 -20 -20 -20 -20 -20 -20 -20
14 18 0 -13 -4 -20 -16 -19 -20 -20 -20 -20 -20 -20 -20 -20 -20 -20 -20 -20 -20 -20
24 -9 -15 -9 -6 17 -4 -20 -20 -20 -20 -14 -6 -20 -20 -20 -20 -20 -20 -20 -20 -20
18 -4 19 29 -3 -20 -20 -20 -20 -11 5 -20 -20 -20 -20 -20 -20 -20 -20 -20 -20 -20
22 25 -5 -20 -7 -20 -20 -5 13 -17 -20 -20 -20 -20 -20 -20 -20 -20 -20 -20 -20 -20
8 -19 2 -3 -20 -5 17 -13 -20 -20 -20 -20 -20 -20 -20 -20 -20 -20 -20 -20 -20 -20
20 7 -13 14 17 -10 -20 -20 -20 -20 -20 -20 -20 -20 -20 -20 -20 -20 -20 -20 -20 -20
Wind_Speed
15 9 10 11 11 10 9 8 9 7 9 8 6 6 6 4 3 4 2 1 1 0
14 14 11 14 12 9 11 10 9 10 9 7 7 6 6 4 3 3 2 1 1 2
14 14 13 13 14 14 11 10 11 10 8 6 7 6 6 4 3 1 0 2 1 2
12 13 14 14 14 13 13 11 9 9 8 6 6 5 5 4 4 2 1 2 2 3
14 13 15 15 14 13 13 10 10 9 7 6 6 5 4 2 2 1 2 3 3 4
15 15 15 16 15 13 12 10 8 8 7 6 6 5 3 3 2 2 3 4 4 4
14 15 15 15 13 13 11 10 8 7 7 6 5 4 3 3 3 4 4 5 4 4
14 15 15 14 13 12 11 8 7 7 6 6 3 4 4 4 5 6 6 6 5 4
15 15 14 13 12 12 9 7 7 6 6 5 4 5 4 4 4 5 6 6 5 5
16 15 13 12 12 10 8 7 6 6 5 5 5 5 4 6 3 5 6 6 5 5
15 15 12 10 10 7 6 6 5 5 4 2 3 4 3 7 5 5 6 6 7 6
14 13 11 10 8 6 6 5 4 3 3 3 4 3 4 7 5 5 7 6 6 9
11 11 11 8 7 5 5 5 4 3 1 4 2 3 5 6 2 5 5 6 6 15
10 10 9 8 5 5 5 4 2 1 2 1 2 1 7 9 3 4 6 5 5 5
Wind_Direction
129 136 141 147 144 140 142 144 143 145 120 121 112 115 115 110 122 119 156 157 83 187
134 138 145 141 135 135 133 136 133 124 125 131 125 119 126 132 138 149 154 205 250 216
127 126 134 135 133 131 136 135 130 124 121 113 115 130 128 130 124 100 275 176 251 314
118 127 133 130 131 129 128 129 123 129 125 135 123 127 116 117 139 179 277 304 279 279
125 134 131 124 124 127 127 129 134 132 117 116 110 107 108 118 119 200 284 292 297 286
140 139 128 128 126 130 124 117 117 105 119 109 107 99 84 68 3 326 300 276 272 278
140 131 126 121 119 116 113 112 99 107 103 107 108 103 48 17 350 338 316 303 293 290
129 120 115 112 115 111 107 98 109 106 106 106 110 78 41 8 357 337 323 315 305 306
119 112 111 111 109 104 102 108 107 112 116 111 96 90 34 5 340 315 313 306 303 295
115 111 110 111 110 110 114 112 114 113 108 101 115 91 21 342 326 305 290 291 293 291
113 111 111 109 110 108 109 118 118 108 103 96 121 111 12 338 327 316 305 303 293 294
113 116 115 111 107 105 102 103 100 103 94 73 67 147 4 352 333 316 316 309 328 318
108 110 106 105 107 93 96 106 105 98 102 145 216 335 341 337 346 320 307 301 299 302
97 100 105 105 102 105 106 108 109 106 348 264 189 280 330 330 311 273 285 284 297 289